contact:dominique.lefevre@mio.osupytheas.fr, maurice.libes@osupytheas.fr
Project:EMSO Ligure-ouest http://www.emso-fr.org/EMSO-France
Sensor Aquadopp, line 13 Serial AQD14315 
DOI : "https://doi.org/10.17882/74513; https://doi.org/10.17882/83244" 
Title:EMSO Ligure Ouest : Data ligne ALBATROSS capteur AQUADOPP - deploiement 2021
Id,Date,Profondeur,Latitude,Longitude,X_East,Y_North,Z_Up,Amplitude_X,Amplitude_Y,Amplitude_Z,Batterie,SoundSpeed,Heading,Pitch,Roll,Pressure,Temperature,Speed,Direction
, , m, degrees North, degrees East, m.s-1, m.s-1,m.s-1, 1, 1, 1, Volt, m.s-1, degree, degree, degree, dbar, degree_C, m.s-1, degree
07,2022-07-10T23:30:00,1500.0,42.79,6.0312,-0.024,0.025,0.02,52.0,51.0,50.0,13.3,1504.0,160.4,0.0,0.9,1475.176,13.11,0.034,316.2
07,2022-07-11T00:00:00,1500.0,42.79,6.0312,-0.034,0.014,-0.004,49.0,51.0,50.0,13.3,1504.0,160.7,0.1,0.9,1475.167,13.11,0.036,292.4
07,2022-07-11T00:30:00,1500.0,42.79,6.0312,-0.038,0.022,0.006,49.0,50.0,49.0,13.3,1504.0,158.0,-0.1,0.8,1475.16,13.11,0.043,300.1
07,2022-07-11T01:00:00,1500.0,42.79,6.0312,-0.038,0.027,-0.01,47.0,50.0,50.0,13.3,1504.0,156.9,0.2,1.1,1475.165,13.11,0.046,305.4
07,2022-07-11T01:30:00,1500.0,42.79,6.0312,-0.034,0.03,0.005,49.0,49.0,49.0,13.3,1504.0,158.2,0.0,1.2,1475.186,13.11,0.045,311.4
07,2022-07-11T02:00:00,1500.0,42.79,6.0312,-0.031,0.025,0.007,48.0,51.0,49.0,13.3,1504.0,156.4,0.3,0.8,1475.19,13.11,0.039,308.9
07,2022-07-11T02:30:00,1500.0,42.79,6.0312,-0.027,0.034,0.015,51.0,53.0,52.0,13.3,1504.0,159.1,0.5,0.8,1475.214,13.11,0.043,321.5
07,2022-07-11T03:00:00,1500.0,42.79,6.0312,-0.023,0.03,-0.004,50.0,52.0,51.0,13.3,1504.0,155.6,-0.1,0.8,1475.255,13.11,0.037,322.5
07,2022-07-11T03:30:00,1500.0,42.79,6.0312,-0.026,0.029,0.006,51.0,53.0,51.0,13.3,1504.0,156.2,0.4,0.8,1475.267,13.11,0.038,318.1
07,2022-07-11T04:00:00,1500.0,42.79,6.0312,-0.032,0.037,0.0,50.0,53.0,53.0,13.3,1504.0,150.5,0.2,0.8,1475.25,13.11,0.048,319.1
07,2022-07-11T04:30:00,1500.0,42.79,6.0312,-0.027,0.036,-0.007,51.0,52.0,53.0,13.3,1504.0,154.7,-0.3,1.2,1475.279,13.11,0.045,323.1
07,2022-07-11T05:00:00,1500.0,42.79,6.0312,-0.033,0.036,-0.002,50.0,52.0,52.0,13.3,1504.0,150.1,0.4,0.8,1475.253,13.11,0.048,317.5
07,2022-07-11T05:30:00,1500.0,42.79,6.0312,-0.036,0.021,-0.007,51.0,53.0,51.0,13.3,1504.0,148.3,0.1,1.0,1475.272,13.11,0.041,300.3
07,2022-07-11T06:00:00,1500.0,42.79,6.0312,-0.026,0.022,0.004,50.0,53.0,51.0,13.3,1504.0,151.7,0.4,0.8,1475.242,13.11,0.034,310.2
07,2022-07-11T06:30:00,1500.0,42.79,6.0312,-0.018,0.018,0.001,51.0,51.0,51.0,13.3,1504.0,150.0,0.1,1.1,1475.231,13.11,0.025,315.0
07,2022-07-11T07:00:00,1500.0,42.79,6.0312,-0.021,0.029,-0.005,51.0,52.0,52.0,13.3,1504.0,153.1,0.3,0.8,1475.24,13.11,0.035,324.1
07,2022-07-11T07:30:00,1500.0,42.79,6.0312,-0.023,0.034,0.007,51.0,50.0,53.0,13.3,1504.0,152.5,0.1,1.0,1475.199,13.11,0.041,325.9
07,2022-07-11T08:00:00,1500.0,42.79,6.0312,-0.028,0.031,0.005,49.0,53.0,52.0,13.3,1504.0,151.1,0.3,0.9,1475.18,13.11,0.041,317.9
07,2022-07-11T08:30:00,1500.0,42.79,6.0312,-0.02,0.024,-0.012,52.0,52.0,51.0,13.3,1504.0,144.7,0.2,0.9,1475.131,13.11,0.031,320.2
07,2022-07-11T09:00:00,1500.0,42.79,6.0312,-0.028,0.028,0.016,49.0,52.0,50.0,13.3,1504.0,147.4,0.1,0.8,1475.132,13.11,0.039,315.0
07,2022-07-11T09:30:00,1500.0,42.79,6.0312,-0.016,0.02,-0.006,51.0,54.0,52.0,13.3,1504.0,146.5,0.2,0.8,1475.101,13.11,0.025,321.3
07,2022-07-11T10:00:00,1500.0,42.79,6.0312,-0.021,0.018,-0.003,50.0,50.0,50.0,13.3,1504.0,147.5,0.2,0.7,1475.105,13.11,0.027,310.6
07,2022-07-11T10:30:00,1500.0,42.79,6.0312,-0.028,0.024,0.009,49.0,51.0,52.0,13.3,1504.0,146.4,0.2,1.1,1475.087,13.11,0.036,310.6
07,2022-07-11T11:00:00,1500.0,42.79,6.0312,-0.024,0.031,0.011,50.0,51.0,52.0,13.3,1504.0,143.9,0.2,1.0,1475.13,13.11,0.039,322.3
07,2022-07-11T11:30:00,1500.0,42.79,6.0312,-0.025,0.029,0.003,50.0,53.0,52.0,13.3,1504.0,145.4,0.0,1.0,1475.094,13.11,0.038,319.2
07,2022-07-11T12:00:00,1500.0,42.79,6.0312,-0.018,0.015,0.005,53.0,51.0,52.0,13.3,1504.0,151.1,0.4,0.9,1475.11,13.11,0.023,309.8
07,2022-07-11T12:30:00,1500.0,42.79,6.0312,-0.031,0.018,0.003,48.0,51.0,51.0,13.3,1504.0,150.1,0.0,0.9,1475.119,13.11,0.035,300.1
07,2022-07-11T13:00:00,1500.0,42.79,6.0312,-0.034,0.008,-0.009,52.0,51.0,50.0,13.3,1504.0,154.2,0.0,1.1,1475.104,13.11,0.034,283.2
07,2022-07-11T13:30:00,1500.0,42.79,6.0312,-0.037,0.016,0.009,52.0,54.0,52.0,13.3,1504.0,150.0,0.3,0.8,1475.134,13.11,0.04,293.4
07,2022-07-11T14:00:00,1500.0,42.79,6.0312,-0.033,0.014,0.001,52.0,51.0,52.0,13.3,1504.0,154.5,0.4,1.0,1475.159,13.11,0.035,293.0
07,2022-07-11T14:30:00,1500.0,42.79,6.0312,-0.038,0.021,0.004,51.0,52.0,53.0,13.3,1504.0,158.4,0.4,0.9,1475.211,13.11,0.043,298.9
07,2022-07-11T15:00:00,1500.0,42.79,6.0312,-0.04,0.023,0.007,51.0,52.0,52.0,13.3,1504.0,156.0,0.4,1.0,1475.218,13.11,0.046,299.9
07,2022-07-11T15:30:00,1500.0,42.79,6.0312,-0.046,0.018,-0.011,51.0,52.0,53.0,13.3,1504.0,160.6,0.4,0.9,1475.265,13.11,0.049,291.4
07,2022-07-11T16:00:00,1500.0,42.79,6.0312,-0.034,0.029,0.002,51.0,52.0,52.0,13.3,1504.0,165.5,-0.1,1.2,1475.263,13.11,0.044,310.5
07,2022-07-11T16:30:00,1500.0,42.79,6.0312,-0.036,0.028,-0.001,50.0,52.0,52.0,13.3,1504.0,166.0,0.2,1.2,1475.283,13.11,0.045,307.9
07,2022-07-11T17:00:00,1500.0,42.79,6.0312,-0.036,0.035,0.008,52.0,52.0,51.0,13.3,1504.0,172.2,0.9,0.9,1475.287,13.11,0.05,314.2
07,2022-07-11T17:30:00,1500.0,42.79,6.0312,-0.039,0.042,-0.002,52.0,51.0,50.0,13.3,1504.0,177.4,0.7,0.9,1475.311,13.11,0.057,317.1
07,2022-07-11T18:00:00,1500.0,42.79,6.0312,-0.038,0.03,-0.009,51.0,51.0,52.0,13.3,1504.0,170.6,0.4,1.1,1475.292,13.11,0.048,308.3
07,2022-07-11T18:30:00,1500.0,42.79,6.0312,-0.042,0.034,0.0,51.0,51.0,51.0,13.3,1504.0,168.2,-0.1,1.0,1475.282,13.11,0.054,309.0
07,2022-07-11T19:00:00,1500.0,42.79,6.0312,-0.041,0.051,-0.008,50.0,51.0,51.0,13.3,1504.0,165.9,-0.1,0.8,1475.299,13.11,0.065,321.2
07,2022-07-11T19:30:00,1500.0,42.79,6.0312,-0.054,0.041,0.013,50.0,51.0,52.0,13.3,1504.0,155.2,0.5,0.8,1475.255,13.11,0.067,307.2
07,2022-07-11T20:00:00,1500.0,42.79,6.0312,-0.04,0.042,-0.012,50.0,53.0,53.0,13.3,1504.0,163.7,0.2,0.9,1475.273,13.11,0.057,316.4
07,2022-07-11T20:30:00,1500.0,42.79,6.0312,-0.032,0.053,-0.002,50.0,52.0,50.0,13.3,1504.0,180.1,0.1,0.9,1475.266,13.11,0.061,328.9
07,2022-07-11T21:00:00,1500.0,42.79,6.0312,-0.035,0.037,0.007,50.0,53.0,51.0,13.3,1504.0,146.3,0.3,0.7,1475.262,13.11,0.05,316.6
07,2022-07-11T21:30:00,1500.0,42.79,6.0312,-0.006,0.037,-0.004,51.0,52.0,50.0,13.3,1504.0,174.7,0.1,0.9,1475.228,13.11,0.037,350.8
07,2022-07-11T22:00:00,1500.0,42.79,6.0312,-0.037,0.028,-0.009,51.0,53.0,51.0,13.3,1504.0,135.4,0.2,1.0,1475.22,13.11,0.046,307.1
07,2022-07-11T22:30:00,1500.0,42.79,6.0312,-0.028,0.032,-0.01,50.0,51.0,53.0,13.3,1504.0,145.8,0.3,0.8,1475.172,13.11,0.042,318.8
07,2022-07-11T23:00:00,1500.0,42.79,6.0312,-0.017,0.041,-0.007,50.0,53.0,51.0,13.3,1504.0,163.0,0.2,1.0,1475.183,13.11,0.044,337.5
